TimePST,TemperatureF,Dew PointF,Humidity,Sea Level PressureIn,VisibilityMPH,Wind Direction,Wind SpeedMPH,Gust SpeedMPH,PrecipitationIn,Events,Conditions,WindDirDegrees,DateUTC
12:08 AM,55.4,48.2,77,30.11,10.0,West,5.8,-,N/A,,Overcast,280,2012-12-07 08:08:00
12:53 AM,55.0,48.9,80,30.10,10.0,NW,4.6,-,N/A,,Overcast,320,2012-12-07 08:53:00
1:07 AM,53.6,48.2,82,30.10,10.0,WNW,3.5,-,N/A,,Overcast,300,2012-12-07 09:07:00
1:53 AM,54.0,48.9,83,30.10,10.0,WNW,5.8,-,N/A,,Overcast,290,2012-12-07 09:53:00
2:53 AM,54.0,48.9,83,30.09,10.0,West,5.8,-,N/A,,Overcast,270,2012-12-07 10:53:00
3:53 AM,54.0,48.9,83,30.09,10.0,NW,3.5,-,N/A,,Overcast,310,2012-12-07 11:53:00
4:53 AM,53.1,48.9,86,30.10,10.0,WNW,3.5,-,N/A,,Overcast,300,2012-12-07 12:53:00
5:53 AM,53.1,48.9,86,30.11,10.0,West,4.6,-,N/A,,Overcast,280,2012-12-07 13:53:00
6:53 AM,53.1,48.9,86,30.11,10.0,WNW,5.8,-,N/A,,Overcast,290,2012-12-07 14:53:00
7:53 AM,54.0,50.0,86,30.12,10.0,Calm,Calm,-,N/A,,Mostly Cloudy,0,2012-12-07 15:53:00
8:53 AM,54.0,48.0,80,30.13,10.0,Calm,Calm,-,N/A,,Clear,0,2012-12-07 16:53:00
9:53 AM,55.9,48.9,77,30.15,10.0,NNW,3.5,-,N/A,,Overcast,330,2012-12-07 17:53:00
10:53 AM,57.9,48.9,72,30.14,10.0,North,3.5,-,N/A,,Overcast,350,2012-12-07 18:53:00
11:53 AM,59.0,48.0,67,30.12,10.0,Calm,Calm,-,N/A,,Clear,0,2012-12-07 19:53:00
12:45 PM,60.8,46.4,59,30.10,10.0,Calm,Calm,-,N/A,,Mostly Cloudy,0,2012-12-07 20:45:00
12:53 PM,60.1,46.9,62,30.09,10.0,Calm,Calm,-,N/A,,Mostly Cloudy,0,2012-12-07 20:53:00
1:31 PM,60.8,48.2,63,30.08,10.0,South,5.8,-,N/A,,Partly Cloudy,170,2012-12-07 21:31:00
1:53 PM,61.0,48.0,62,30.07,10.0,SW,3.5,-,N/A,,Clear,220,2012-12-07 21:53:00
2:53 PM,61.0,46.9,60,30.07,10.0,Calm,Calm,-,N/A,,Clear,0,2012-12-07 22:53:00
3:53 PM,60.1,46.9,62,30.07,10.0,WNW,4.6,-,N/A,,Clear,300,2012-12-07 23:53:00
5:53 PM,52.0,46.9,83,30.09,6.0,Calm,Calm,-,N/A,,Haze,0,2012-12-08 01:53:00
6:53 PM,51.1,48.0,89,30.09,4.0,Calm,Calm,-,N/A,,Clear,0,2012-12-08 02:53:00
7:53 PM,48.9,46.0,90,30.09,9.0,Calm,Calm,-,N/A,,Clear,0,2012-12-08 03:53:00
8:53 PM,50.0,46.9,89,30.09,6.0,ENE,3.5,-,N/A,,Clear,60,2012-12-08 04:53:00
9:53 PM,48.0,45.0,89,30.09,4.0,Calm,Calm,-,N/A,,Clear,0,2012-12-08 05:53:00
10:51 PM,46.4,44.6,93,30.09,2.5,Calm,Calm,-,N/A,,Clear,0,2012-12-08 06:51:00
10:53 PM,45.0,44.1,97,30.09,2.5,Calm,Calm,-,N/A,,Clear,0,2012-12-08 06:53:00
11:10 PM,44.6,44.6,100,30.09,1.2,Calm,Calm,-,N/A,,Clear,0,2012-12-08 07:10:00
11:21 PM,44.6,44.6,100,30.09,0.8,Calm,Calm,-,N/A,,Mist,0,2012-12-08 07:21:00
11:53 PM,45.0,43.0,93,30.08,0.2,Calm,Calm,-,N/A,Fog,Fog,0,2012-12-08 07:53:00